Track COSMOS 1287 now! 10-day predictions COSMOS 1287 is classified as:
1 12636U 81074A 19050.63440575 +.00000008 +00000-0 +16564-3 0 9990 2 12636 074.0330 119.6983 0030222 027.5019 124.6506 12.44313276705725